This is the latest recevied weather packets stored in our database for station/object OK2ZAW-19. If no packets are shown the sender has not sent any weather packets the latest 10 day(s).
| Time | Temp. | Humidity | Pressure | Rain* | Wind** | Luminosity | Snow |
|---|---|---|---|---|---|---|---|
| 1777724545 | 21.11° C | 34% | 1023.6 hPa | - | - | 337 W/m² | - |
| 1777723922 | 21.11° C | 34% | 1023.8 hPa | - | - | 337 W/m² | - |
| 1777723610 | 21.11° C | 34% | 1023.8 hPa | - | - | 337 W/m² | - |
| 1777723299 | 20.56° C | 34% | 1023.9 hPa | - | - | 337 W/m² | - |
| 1777722987 | 20.56° C | 34% | 1023.9 hPa | - | - | 337 W/m² | - |
| 1777722676 | 20.56° C | 34% | 1024 hPa | - | - | 337 W/m² | - |
| 1777722052 | 21.11° C | 34% | 1024.1 hPa | - | - | 337 W/m² | - |
| 1777721741 | 21.11° C | 34% | 1024.1 hPa | - | - | 337 W/m² | - |
| 1777721429 | 21.11° C | 34% | 1024.2 hPa | - | - | 338 W/m² | - |
| 1777721118 | 21.11° C | 35% | 1024.2 hPa | - | - | 337 W/m² | - |
| 1777720806 | 21.11° C | 36% | 1024.3 hPa | - | - | 337 W/m² | - |
| 1777719871 | 20° C | 35% | 1024.5 hPa | - | - | 337 W/m² | - |
| 1777719248 | 20.56° C | 36% | 1024.6 hPa | - | - | 337 W/m² | - |
| 1777718937 | 20.56° C | 37% | 1024.7 hPa | - | - | 337 W/m² | - |
| 1777718625 | 20° C | 38% | 1024.7 hPa | - | - | 337 W/m² | - |
| 1777718314 | 20° C | 36% | 1024.8 hPa | - | - | 337 W/m² | - |
| 1777718002 | 20° C | 37% | 1024.8 hPa | - | - | 336 W/m² | - |
| 1777717691 | 20° C | 39% | 1024.8 hPa | - | - | 337 W/m² | - |
| 1777717379 | 19.44° C | 42% | 1024.9 hPa | - | - | 337 W/m² | - |
| 1777717068 | 18.89° C | 43% | 1025 hPa | - | - | 337 W/m² | - |
| 1777716757 | 18.89° C | 42% | 1025 hPa | - | - | 337 W/m² | - |
| 1777716445 | 18.33° C | 45% | 1025 hPa | - | - | 337 W/m² | - |
| 1777715823 | 17.78° C | 46% | 1025 hPa | - | - | 337 W/m² | - |
| 1777715512 | 17.78° C | 45% | 1025.2 hPa | - | - | 337 W/m² | - |
| 1777714889 | 17.22° C | 50% | 1025.2 hPa | - | - | 337 W/m² | - |
* Rain since midnight (hover to see other rain measurements)
** Current wind speed in m/s (hover to see current wind gust speed)